Location: Poughquag
(41.6090°N, 73.6820°W)
Time: 14:55:46
(UTC-04:00)

Courier 1B - Pass Details

Date: 04 June 2020
Orbit: 962 x 1209 km, 28.3° (Epoch: 05 July)

Event Time Altitude Azimuth Distance (km) Brightness Sun altitude
Rises 21:09:09 0° 207° (SSW) 3,754 10.4 -7.5°
Reaches altitude 10° 21:13:26 10° 182° (S) 2,859 9.6 -8.1°
Maximum altitude 21:16:36 13° 155° (SSE) 2,648 9.2 -8.6°
Enters shadow 21:19:27 11° 131° (SE) 2,887 9.3 -9.0°
